Regional Weather Roundup
Issued by NWS Pendleton, OR

Home | Current Version | Previous Version | Text Only | Print | Product List | Glossary On
Versions: 1 2 3 4 5 6 7 8 9 10 11 12 13 14 15 16 17 18 19 20 21 22 23 24 25 26 27 28 29 30 31 32 33 34 35 36 37 38 39 40 41 42 43 44 45 46 47 48 49 50
000
ASUS46 KPDT 122204
RWRPDT
PENDLETON REGIONAL WEATHER ROUNDUP
NATIONAL WEATHER SERVICE PENDLETON OREGON
200 PM PST TUE DEC 12 2017

NOTE: FAIR INDICATES FEW OR NO CLOUDS BELOW 12,000 FEET WITH NO
SIGNIFICANT WEATHER AND/OR OBSTRUCTIONS TO VISIBILITY.

# INDICATES UNOFFICIAL STATION AND DATA

WAZ520-122310-
EAST SLOPES OF WASHINGTON CASCADES

CITY            SKY/WX      TMP DP  RH  WIND    PRES   REMARKS
#BULLFROG       N/A         28  21  75  CALM    N/A
#CLE ELUM HS    N/A         30  22  72  CALM    30.41F
#CLE ELUM LAKE  N/A         24  22  92  CALM    30.51F
#EASTON DOT     N/A         26  21  81  N1      N/A
#ELK HTS DOT    N/A         26  25  96  CALM    N/A
#GLENWOOD       N/A         28  24  85  CALM    30.61F
#NELSON 3SW     N/A         23  21  92  CALM    30.82F
#NILE           N/A         28  22  78  CALM    29.82F
#TEANAWAY 4NE   N/A         28  23  81  CALM    N/A
#TROUT LAKE 1NE N/A         27  24  88  CALM    30.62F
#TROUT LAKE 1E  N/A         28  24  85  CALM    30.53F
$$

WAZ521-122310-
SIMCOE HIGHLANDS

CITY            SKY/WX      TMP DP  RH  WIND    PRES   REMARKS
#BICKLETON HS   N/A         N/A N/A N/A CALM    30.42F
#CENTERVILLE 1SWN/A         26  22  85  CALM    30.59F
#GOLDENDALE 4W  N/A         28  13  53  S3      30.53F
#GOODNOE HILLS  N/A         29  23  78  SE3     30.45F
#LYLE 6NE       N/A         26  23  88  CALM    30.63F
#PITT 4SE       N/A         23  22  96  CALM    30.66F
$$

WAZ026-122310-
KITTITAS VALLEY

CITY            SKY/WX      TMP DP  RH  WIND    PRES   REMARKS
ELLENSBURG AP   CLOUDY      29  22  75  CALM    30.50F
#ELLENSBURG CWU N/A         28  23  81  CALM    30.55F
#ELLENSBURG 3NE N/A         26  23  88  CALM    28.56F
#ELLENSBURG 1E  N/A         28  23  81  CALM    30.66F
#KITTITAS 3S    N/A         28  24  85  CALM    30.59F
#MANASTASH RDG  N/A         23  23  100 SW1     N/A
#RYEGRASS DOT   N/A         24  22  92  W5      N/A
$$

WAZ027-122310-
YAKIMA VALLEY

CITY            SKY/WX      TMP DP  RH  WIND    PRES   REMARKS
SUNNYSIDE AP    CLOUDY      30  24  78  SE3     30.59F
YAKIMA AIRPORT  CLOUDY      32  24  72  CALM    30.56F
YAKIMA-VAGABOND CLOUDY      29  23  78  CALM    30.52F
#DONALD 2NE     N/A         31  10  41  CALM    29.39F
#GRANDVIEW      N/A         30  24  78  CALM    30.55F
#MABTON         N/A         32  28  85  SE6     30.58F
#MOXEE 2E       N/A         28  N/A N/A CALM    30.61S
#NACHES 2SW     N/A         28  25  88  S1      30.57S
#OUTLOOK DOT    N/A         31  25  78  CALM    30.55F
#PARKER DOT     N/A         31  24  75  E1      30.57F
#TERRACE HTS    N/A         29  24  81  CALM    30.59F
#TOPPENISH      N/A         31  25  78  CALM    30.53F
#I82 S UMTANUM RN/A         26  21  81  SW3     N/A
#UNION GAP DOT  N/A         31  23  72  SW1     30.60F
#W YAKIMA       N/A         29  24  81  CALM    30.62F
#WHITE SWAN 5E  N/A         31  25  78  CALM    30.63F
#WILEY CITY 3W  N/A         29  22  75  CALM    30.50F
#ZILLAH DOT     N/A         31  25  78  S1      N/A
$$

WAZ028-122310-
LOWER COLUMBIA BASIN...WASHINGTON

CITY            SKY/WX      TMP DP  RH  WIND    PRES   REMARKS
PASCO           CLOUDY      33  25  72  SE3     30.61F
PROSSER AWOS    N/A         32  27  82  S6      30.62F
RICHLAND AWOS   CLOUDY      33  27  78  E8      30.62F
#BENTON CITY    N/A         31  26  81  CALM    30.54F
#CONNELL 5N     N/A         28  25  88  CALM    30.64F
#CONNELL 5NW    N/A         29  26  88  CALM    30.58F
#ELTOPIA 6NW    N/A         30  27  88  CALM    29.53F
#KAHLOTUS       N/A         27  24  88  CALM    30.63F
#KENNEWICK 3S   N/A         30  25  81  CALM    30.64F
#PATERSON       N/A         31  26  81  CALM    30.61F
#PROSSER DOT    N/A         31  26  81  CALM    30.60F
#SAGEMOOR 2W    N/A         30  26  85  CALM    30.50F
#TOUCHET 2S     N/A         32  27  82  E1      30.61F
#WEST PASCO     N/A         34  27  75  CALM    30.66F
$$

WAZ029-122310-
FOOTHILLS OF THE BLUES...WASHINGTON

CITY            SKY/WX      TMP DP  RH  WIND    PRES   REMARKS
WALLA WALLA AP  CLOUDY      30  23  75  CALM    30.55F
#CLYDE 6NW      N/A         28  24  85  CALM    30.61F
#DELANEY DOT    N/A         29  23  78  S2      30.60F
#LOWDEN 2SE     N/A         32  26  78  CALM    30.56F
#PLEASANT VIEW 1N/A         25  22  88  CALM    30.68F
#PRESCOTT       N/A         31  25  78  CALM    30.62F
#WHITMAN COLLEGEN/A         30  25  81  NW1     30.61F
#WAITSBURG 5S   N/A         26  24  92  CALM    30.72F
#WAITSBURG 6SSE N/A         27  21  78  CALM    30.61F
#WALLA WALLA 5E N/A         30  25  81  CALM    N/A
#WHITMAN MISSIONN/A         33  27  78  CALM    30.64F
$$

WAZ030-122310-
BLUE MOUNTAINS...WASHINGTON

CITY            SKY/WX      TMP DP  RH  WIND    PRES   REMARKS
#DIXIE 5SE      N/A         17  15  92  CALM    30.36F
$$

ORZ009-041-WAZ024-122310-
COLUMBIA RIVER GORGE

CITY            SKY/WX      TMP DP  RH  WIND    PRES   REMARKS
HOOD RIVER AP   CLOUDY      32  27  82  E5      30.59F
THE DALLES AP   CLOUDY      35  24  64  E6      30.61F
#ARLINGTON AIRPON/A         30  25  81  SE3     30.64F
#ARLINGTON HS   N/A         32  24  72  CALM    30.54F
#LYLE           N/A         34  27  75  SE5     30.64F
#MARYHILL       N/A         31  23  72  CALM    N/A
#MURDOCK        N/A         34  26  72  CALM    30.59F
#RUFUS DOT      N/A         34  N/A N/A S5      N/A
#SMITHVILLE     N/A         34  27  75  E3      30.58F

$$

ORZ510-122310-
NORTH CENTRAL OREGON

CITY            SKY/WX      TMP DP  RH  WIND    PRES   REMARKS
#ANTELOPE       N/A         28  22  78  CALM    30.56F
#CHENOWITH 1W   N/A         26  24  92  SE5     N/A
#COW CYN RST AREN/A         29  N/A N/A CALM    N/A
#DUFUR          N/A         28  23  81  CALM    30.59F
#DUFUR 9E       N/A         23  22  96  CALM    30.69F
#GRASS VALLEY 1SN/A         24  23  96  CALM    30.46F
#KENT DOT       N/A         24  20  84  CALM    N/A
#MAUPIN SCHOOL  N/A         30  22  72  E1      30.61F
#MORO SCHOOL    N/A         25  24  96  CALM    30.49F
#SHANIKO 5WSW   N/A         29  -30  6  CALM    N/A
#SHANIKO 4NW    N/A         25  25  100 S2      30.41F
#TYGH VALLEY 2NEN/A         29  23  78  CALM    30.62F
#WAPANITIA AIRPON/A         25  22  88  CALM    30.65F
#WASCO DOT      N/A         30  24  78  E6      N/A
#WASCO 5NE      N/A         28  21  75  CALM    30.62F
$$

ORZ511-122310-
CENTRAL OREGON

CITY            SKY/WX      TMP DP  RH  WIND    PRES   REMARKS
BEND AIRPORT    PTCLDY      43  18  36  E5      30.41F
PRINEVILLE AP   SUNNY       43  16  33  CALM    30.41F
REDMOND AIRPORT PTCLDY      42  20  41  N6      30.41
#ASHWOOD SCHOOL N/A         30  22  72  CALM    30.38F
#BEND 1SW       N/A         42  20  41  SW3     N/A
#BEND-AWBREY    N/A         45  20  36  CALM    30.54F
#BEND-KIM LN    N/A         39  25  57  N1      30.57F
#CULVER         N/A         24  21  88  NE1     30.50S
#CULVER 8W      N/A         26  16  65  CALM    30.40F
#LAKE BILLY CHINN/A         24  N/A N/A E2      30.54F
#MADRAS 4S      N/A         25  -10 20  CALM    N/A
#POWELL BUTTE   N/A         40  13  33  W2      30.31F
#PRINEVILLE     N/A         40  23  50  CALM    30.69F
#PRINEVILLE 3N  N/A         40  23  50  CALM    30.59F
#WARM SPRINGS   N/A         27  22  81  CALM    30.45F

$$


ORZ509-122310-
EAST SLOPES OF OREGON CASCADES

CITY            SKY/WX      TMP DP  RH  WIND    PRES   REMARKS
SISTERS AWOS    N/A         37  21  52  CALM    N/A
#BLUE BOX PASS  N/A         37  N/A N/A CALM    N/A
#CAMP SHERMAN   N/A         33  21  61  CALM    30.66F
#LA PINE 4NW    N/A         40  20  44  CALM    30.69F
#LAVA BUTTE DOT N/A         40  14  34  SE1     N/A
#SISTERS ODOT   N/A         36  19  50  CALM    N/A
#SISTERS 3N     N/A         37  20  50  CALM    30.38S
#SUNRIVER       N/A         38  22  52  S2      30.60F
#TUMALO 3W      N/A         40  22  48  E3      30.44F
#WANOGA BUTTE D N/A         54  -6   8  W6      N/A

$$

ORZ044-122310-
LOWER COLUMBIA BASIN...OREGON

CITY            SKY/WX      TMP DP  RH  WIND    PRES   REMARKS
HERMISTON       CLOUDY      31  25  78  CALM    30.59F
#BOARDMAN SCHOOLN/A         33  27  78  CALM    30.60F
#BOARDMAN 8SW   N/A         31  26  81  SW3     30.62F
#ECHO 8SW       N/A         31  24  75  E1      30.60F
#I-84 EX 198 DOTN/A         28  23  81  NE2     N/A
#IONE SCHOOL    N/A         28  14  55  CALM    30.65F
#UMATILLA       N/A         32  24  72  CALM    30.56F
$$

ORZ507-122310-
NORTHERN FOOTHILLS OF THE BLUES

CITY            SKY/WX      TMP DP  RH  WIND    PRES   REMARKS
PENDLETON AIRPT CLOUDY      27  22  81  SW5     30.53F
#ADAMS 3WNW     N/A         27  24  88  S1      30.62F
#ATHENA         N/A         27  23  85  CALM    30.65F
#CAYUSE         N/A         27  24  88  W1      30.62F
#HELIX SCHOOL   N/A         28  24  85  N2      30.61F
#HELIX 3N       N/A         26  25  96  CALM    30.49F
#HOLDMAN 5SE    N/A         28  25  88  SW1     30.52F
#HOLDMAN 6E     N/A         27  25  92  CALM    30.41F
#M-F GROVE ELEM N/A         30  22  72  CALM    30.53F
#M-FREEWATER 5SEN/A         29  24  81  CALM    30.51F
#PENDLETON DNTN N/A         29  20  69  W2      30.51F
#PDT AQUATIC CTRN/A         28  22  78  SW3     30.55F
#PDT SUNRIDGE   N/A         28  24  85  S2      30.57F
#PENDLETON 6SE  N/A         27  24  88  W3      30.58F
#PENDLETON 7NW  N/A         28  22  78  CALM    30.64R
#PILOT ROCK 1S  N/A         27  19  71  CALM    30.51F
#PILOT ROCK     N/A         28  22  78  CALM    30.51F
#TUTUILLA       N/A         27  22  81  CALM    30.60F
#UMAPINE 2E     N/A         32  27  82  CALM    30.55F
#WESTON SCHOOL  N/A         27  21  78  CALM    30.42F

$$

ORZ508-122310-
SOUTHERN FOOTHILLS OF THE BLUES

CITY            SKY/WX      TMP DP  RH  WIND    PRES   REMARKS
LEXINGTON       CLOUDY      28  25  88  CALM    30.56F
#AJAX           N/A         24  17  74  CALM    30.60F
#CONDON 5W      N/A         27  26  96  CALM    30.38F
#FOSSIL SCHOOL  N/A         26  23  88  NW2     30.36F
#HEPPNER EOC    N/A         25  22  88  W2      30.57F
#HEPPNER 4NE    N/A         23  22  96  CALM    30.63F
#LEXINGTON 2SE  N/A         28  23  81  CALM    30.50F
#MIKKALO        N/A         27  21  78  SE1     30.62F
#OLEX 4N        N/A         28  24  85  CALM    30.53F
#RUGGS 5NE      N/A         25  24  96  CALM    30.62F
#RUGGS 2SW      N/A         22  20  92  CALM    30.68F

$$

ORZ502-503-122310-
BLUE MOUNTAINS

CITY            SKY/WX      TMP DP  RH  WIND    PRES   REMARKS
MEACHAM         PTCLDY      32  21  63  CALM    30.41F
#BATTLE MTN DOT N/A         31  13  47  S6      N/A
#GRANITE        N/A         43  21  41  CALM    30.49F
#GREENHORN 9SW  N/A         34  20  56  NE3     26.60F
#LADD CYN SMT   N/A         21  20  96  SE23G30 N/A    WCI  5
#LADD CREEK ODOTN/A         24  12  60  SW8     N/A
#LONG CREEK HS  N/A         37  25  61  CALM    30.42F
#N POWDER DOT   N/A         24  21  88  SW6     N/A
#PIKES PEAK     N/A         20  17  88  CALM    27.99S
#SUMMERVILLE 5NWN/A         27  23  85  S5      28.41F
#TOLLGATE       N/A         44  18  35  SW1     30.37F
#TROY SCHOOL    N/A         37  27  67  SE2     30.47F
#UKIAH          N/A         29  20  69  CALM    30.58F
#WESTON 4E      N/A         23  21  92  CALM    30.60F
$$

ORZ505-122310-
JOHN DAY BASIN

CITY            SKY/WX      TMP DP  RH  WIND    PRES   REMARKS
JOHN DAY        SUNNY       39  18  42  CALM    30.43F
#ANTELOPE 9ESE  N/A         31  22  69  CALM    N/A
#DAYVILLE SCHOOLN/A         29  19  66  CALM    30.41F
#MITCHELL 8NW   N/A         27  25  92  CALM    30.70S
#MONUMENT HS    N/A         32  19  58  CALM    30.42F
#MT. VERNON 5SE N/A         38  23  54  CALM    30.37F
#SPRAY SCHOOL   N/A         33  N/A N/A CALM    N/A
$$

ORZ506-122310-
OCHOCO AND JOHN DAY HIGHLANDS

CITY            SKY/WX      TMP DP  RH  WIND    PRES   REMARKS
#HORSE RIDGE DO N/A         44  21  40  SE10    N/A
#IZEE 6NW       N/A         38  20  48  CALM    N/A
#PAULINA ODOT   N/A         29  16  58  E1      N/A
#PRAIRIE CITY   N/A         43  15  32  CALM    30.60F
#SENECA         N/A         25  N/A N/A CALM    N/A
#SENECA 9NW     N/A         30  19  63  CALM    30.73F
$$

ORZ049-122310-
GRANDE RONDE VALLEY

CITY            SKY/WX      TMP DP  RH  WIND    PRES   REMARKS
LA GRANDE       PTCLDY      31  21  66  SW6     30.52F
#COVE SCHOOL    N/A         28  23  81  E1      30.48F
#COVE 6NW       N/A         29  23  78  SE5     30.66F
#ELGIN 3N       N/A         29  17  60  SW6     30.44F
#ELGIN 1E       N/A         32  23  69  CALM    N/A
#IMBLER SCHOOL  N/A         28  22  78  CALM    30.45F
#ISLAND CITY 4N N/A         44  33  65  CALM    30.44F
#LADD CYN DOT   N/A         25  22  88  S25G37  N/A    WCI  9
#UNION 1S       N/A         27  23  85  SE15G25 30.68F WCI 15
$$

ORZ050-122310-
WALLOWA COUNTY

CITY            SKY/WX      TMP DP  RH  WIND    PRES   REMARKS
#ENTERPRISE HS  N/A         20  18  92  CALM    30.61F
#IMNAHA SCHOOL  N/A         34  24  66  N6      30.46F
#IMNAHA 10S     N/A         32  23  69  NE1     30.40F
#JOSEPH         N/A         20  13  74  CALM    30.84F
#JOSEPH 3N      N/A         19  14  80  CALM    30.43F
#JOSEPH 3W      N/A         18  15  88  CALM    30.84F
#LOSTINE        N/A         18  16  92  CALM    30.54F
#LOSTINE 3SE    N/A         19  17  92  CALM    30.51F
#MT HOWARD 8000 N/A         44  -16  7  S2      30.43F
#PROMISE 1S     N/A         26  21  81  E3      30.73F
#WALLOWA SCHOOL N/A         21  18  88  CALM    30.45F



$$



USA.gov is the U.S. government's official web portal to all federal, state and local government web resources and services.